sat.trackr.live / text

‹ back to catalog

STARLINK-11417 [DTC]

NORAD 62983 · 2025-031C

PAYLOAD ACTIVE UNKNOWN

§ Identity

Operator
Country
US
Launch date
2025-02-11
Launch site
AFETR
Launch vehicle
Mass (kg)
RCS (m²)

Purposes: comms

External: N2YO · Heavens-Above · Gunter

§ Orbital elements

Epoch: 2026-09-21T16:32:59.956512Z

Period
91.67 min
Inclination
43.0014°
Eccentricity
0.0001615
Mean motion
15.70931013 rev/d
Perigee alt
355.1 km
Apogee alt
357.3 km
Semi-major
6,734.4 km
B*
1.3848e-3
RAAN
260.4395°
Arg perigee
272.9438°
Mean anomaly
87.1245°
Rev number
9,356

§ Raw data

STARLINK-11417 [DTC]1 62983U 25031C   26264.68958283  .00181874  00000+0  13848-2 0  99922 62983  43.0014 260.4395 0001615 272.9438  87.1245 15.70931013 93569

JSON: /api/v1/satellites/62983 · /tle

For live sub-satellite position, see the globe view (requires WebGL).

§ Visibility from observer

Set your observer location to see the next 7 days of passes ≥ 10°. The values pass through the URL so the page stays shareable.

No JS? Fill the form by hand. The geolocation button needs JavaScript.